Location: Alladorf
(49.9620°N, 11.3790°E)
Time: 21:30:54
(UTC+00:00)

Cosmos 2082 Rocket - Pass Details

Date: 29 November 2020
Orbit: 831 x 855 km, 71.0° (Epoch: 25 January)

Event Time Altitude Azimuth Distance (km) Brightness Sun altitude
Exits shadow 04:57:26 - 341° (NNW) 2,766 4.6 -17.2°
Reaches altitude 10° 04:58:20 10° 346° (NNW) 2,483 4.4 -17.0°
Maximum altitude 05:03:09 27° 43° (NE) 1,582 3.9 -16.3°
Drops below altitude 10° 05:07:57 10° 101° (E) 2,484 6.0 -15.5°
Sets 05:10:47 0° 113° (ESE) 3,419 7.2 -15.1°
